448  
ASUS41 KOKX 241909  
RWROKX  
 
REGIONAL WEATHER ROUNDUP  
NATIONAL WEATHER SERVICE NEW YORK NY  
300 PM EDT SAT JUN 24 2017  
 
NOTE: "FAIR" INDICATES FEW OR NO CLOUDS BELOW 12,000 FEET WITH NO  
SIGNIFICANT WEATHER AND/OR S TO VISIBILITY
.  
 
NYZ071-072-176-178-NJZ106-104-242000-  
NEW YORK CITY METRO AREA  
 
CITY SKY/WX TMP DP RH WIND PRES REMARKS
 
CENTRAL PARK SUNNY 83 57 41 VRB7 29.78R  
BRONX BOT GARD NOT AVBL  
LAGUARDIA APRT MOSUNNY 85 56 37 NW18G28 29.74R  
KENNEDY INTL MOSUNNY 87 55 33 NW24G30 29.75R  
BREEZY POINT N/A 82 N/A N/A W12G17 N/A  
NEWARK/LIBERTY MOSUNNY 87 55 33 NW17G26 29.75R  
TETERBORO SUNNY 84 55 36 NW12G29 29.74R  

 
 
NYZ177-179-078>081-242000-  
LONG ISLAND NEW YORK  
 
CITY SKY/WX TMP DP RH WIND PRES REMARKS
 
JONES BEACH N/A 81 N/A N/A NW20 N/A  
MATINECOCK PT NOT AVBL  
FARMINGDALE NOT AVBL  
MACARTHUR/ISP MOSUNNY 86 57 37 W14G26 29.71R  
SHIRLEY SUNNY 85 60 42 W17G23 29.72R  
MT SINAI HARB N/A 82 N/A N/A W9G20 N/A  
WESTHAMPTON MOSUNNY 85 59 41 W18 29.72R  
EAST HAMPTON FAIR 83 61 47 NW13G20 29.70R  
MONTAUK N/A 80 63 55 W13G21 29.70R  

 
 
NYZ052-065-067-242000-  
HUDSON VALLEY  
 
CITY SKY/WX TMP DP RH WIND PRES REMARKS
 
WHITE PLAINS MOSUNNY 82 54 36 NW20G29 29.75R  
LARCHMONT HARB N/A 81 N/A N/A W20G26 N/A  
CROTON O-T HUD N/A 81 N/A N/A NW16 N/A  
NEWBURGH MOSUNNY 82 55 39 NW17G29 29.76S  
MONTGOMERY MOSUNNY 83 52 34 W9 29.75R  
POUGHKEEPSIE SUNNY 84 55 36 W15G22 29.72R  
ALBANY MOSUNNY 81 54 39 W22G30 29.72R  

 
 
NJZ001-105-106-008-010-013-015-019>022-104-242000-  
NEW JERSEY  
 
CITY SKY/WX TMP DP RH WIND PRES REMARKS
 
NEWARK/LIBERTY MOSUNNY 87 55 33 NW17G26 29.75R  
TETERBORO SUNNY 84 55 36 NW12G29 29.74R  
CALDWELL SUNNY 86 54 33 NW14G24 29.77R  
SOMERVILLE PTSUNNY 84 60 44 VRB3 29.76S  
LINDEN FAIR 86 52 31 NW20G29 29.76R  
PERTH AMBOY N/A 82 N/A N/A W18G28 N/A  
SUSSEX MOSUNNY 82 53 36 NW8 29.79R  
ANDOVER N/A 83 55 38 W7 29.79S  
TRENTON MOSUNNY 85 59 41 W9 29.79R  
MILLVILLE MOSUNNY 86 61 42 W20G26 29.82R  
ATLANTIC CITY MOSUNNY 87 64 46 W14G26 29.80R  
WRIGHTSTOWN MOSUNNY 85 59 41 NW14G21 29.77R  
TOMS RIVER SUNNY 87 60 40 W15G22 29.79R  
BELMAR SUNNY 86 57 37 W15G24 29.78R  

 
 
PAZ047>061-062-071-242000-  
EASTERN PENNSYLVANIA  
 
CITY SKY/WX TMP DP RH WIND PRES REMARKS
 
PHILADELPHIA MOSUNNY 87 56 34 W16G25 29.81R  
ALLENTOWN MOSUNNY 84 57 39 W14G21 29.80S  
SCRANTON MOSUNNY 82 54 37 SW8 29.81S  

 
 
CTZ002-004>006-009-010-012-RIZ004-006-007-MAZ004-011-015-242000-  
SOUTHERN NEW ENGLAND  
IN CT  
 
CITY SKY/WX TMP DP RH WIND PRES REMARKS
 
BRADLEY INTL MOSUNNY 85 55 35 NW13G24 29.69R  
HARTFORD SUNNY 85 56 37 NW10G24 29.69R  
DANBURY SUNNY 83 53 35 NW14G22 29.75R  
WTRBURY/OXFORD PTSUNNY 81 57 44 NW12G23 29.75R  
BRIDGEPORT MOSUNNY 89 55 31 NW17G23 29.70R  
MERIDEN MOSUNNY 85 57 38 NW13G24 29.70R  
NEW HAVEN MOSUNNY 84 57 39 NW10G21 29.70R  
CHESTER FAIR 84 55 37 NW14G25 29.71R  
GROTON SUNNY 87 59 38 NW17G25 29.66R  
WILIMANTIC SUNNY 85 53 33 NW14G30 29.68R  
 
IN RI  
 
CITY SKY/WX TMP DP RH WIND PRES REMARKS
 
PROVIDENCE MOSUNNY 85 64 49 NW14 29.64R  
BLOCK ISLAND SUNNY 76 64 66 W15G22 29.68R  
WESTERLY SUNNY 86 61 42 NW9G21 29.66R  
IN MA  
 
CITY SKY/WX TMP DP RH WIND PRES REMARKS
 
BOSTON MOSUNNY 82 69 64 W13G22 29.59R  
WORCESTER SUNNY 80 57 45 W18 29.68R  
WESTFIELD SUNNY 84 55 36 W16G28 29.68R  
PROVINCETOWN SUNNY 76 71 85 SW14 29.61R  
NANTUCKET MOSUNNY 73 69 87 W20 29.63R  

 
 
ANZ330-335-338-340-345-350-353-355-242000-  
COASTAL MARINE OBSERVATIONS  
 
 
STATION/POSITION TIME SKY/WX TEMP WIND PRES VSBY WAVE
 
AIR SEA DIR/SP/G HT/PER  
(UTC) (F) (DEG/KT/KT) (MB) (MI) (FT/S)  
NY HARB ENTRANCE 1750 73 67 290/ 14/ 16 1006.9 5/ 8  
20 S FIRE ISLAND 1850 73 67 280/ 16/ 17 1006.5 8/ 9  
GREAT SOUTH BAY 1830 81 76 290/ 12/ 19 N/A  
23 SSW MONTAUK P 1750 68 64 1005.1 9/ 8  
15 E BARNEGAT LI 1830 62 N/A 6/ 9  
HUDSON CANYON 1750 71 67 260/ 16/ 17 1007.2 9/ 8  
KINGS POINT 1836 78 65 330/ 17/ 22 1006.9  
EXECUTION ROCKS 1845 80 290/ 17/ 25 N/A  
CENTRAL LI SOUND 1830 73 240/ 8/ 10 N/A 1  
EASTERN LI SOUND NOT AVBL  
ROBBINS REEF 1830 290/ 20/ 24 1007.7  

 
 
>>>>>>>>>>>>>>>>>>>>>>>>>>>> KEY <<<<<<<<<<<<<<<<<<<<<<<<<<<  
> <  
> SKY/WX - SKY CONDITION/PRESENT WEATHER <  
> TMP - TEMPERATURE IN FAHRENHEIT <  
> DP - DEW POINT IN FAHRENHEIT <  
> RH - RELATIVE HUMIDITY IN PERCENT <  
> WIND - DIRECTION (FROM) AND SPEED IN MPH <  
> PRES - MEAN SEA LEVEL PRESSURE (INCHES OF HG) <  
> WCI - WIND CHILL INDEX <  
> VSB - VISIBILITY IN MILES <  
> HX - HEAT INDEX <  
> TC - TEMPERATURE IN CELSIUS <  
> VRB - VARIABLE WIND DIRECTION <  
> <  
>>>>>>>>>>>>>>>>>>>>>>>>>>>> KEY <<<<<<<<<<<<<<<<<<<<<<<<<<<  
 
 
CLICK HERE TO GO TO PREVIOUS BULLETINS.

The Nexlab NY Page
The Nexlab NJ Page
The Nexlab CT Page Main Text Page